Tracking 18843 objects as of 20-November-2017
HD Live streaming from Space Station
objects crossing your sky now

COSMOS 2039

Track COSMOS 2039 now!
10-day predictions
COSMOS 2039 is classified as:


NORAD ID: 20233
Int'l Code: 1989-074B
Perigee: 1,393.8 km
Apogee: 1,415.5 km
Inclination: 82.6 °
Period: 113.7 minutes
Semi major axis: 7775 km
RCS: 1.1884 m2 (large)
Launch date: September 14, 1989
Source: Commonwealth of Independent States (former USSR) (CIS)
Launch site: PLESETSK MISSILE AND SPACE COMPLEX (PKMTR)
aabbcc
Your satellite tracking list
Your tracking list is empty




NASA's NSSDC Master Catalog

Two Line Element Set (TLE):
1 20233U 89074B   17324.17676455  .00000028  00000-0  90200-4 0  9991
2 20233  82.5839  35.7370 0013981 304.4878 111.9651 12.66190549302594
Source of the keplerian elements: AFSPC